CW7164 Weather Reports


Display with metric or nautical units.
time (UTC)temp
F
wind
direction
speed
MPH
gust
MPH
rain 1hr
in
rain 24hr
in
rain mn
in
humidity
%
barometer
mb
20260509194033 72 273 3.0 9.0 0.00 0.00 0.00 31 1003.8
20260509193133 72 262 3.0 11.0 0.00 0.00 0.00 30 1003.6
20260509192233 72 286 2.0 7.0 0.00 0.00 0.00 31 1003.8
20260509191333 73 273 3.0 11.0 0.00 0.00 0.00 30 1003.9
20260509190433 74 242 2.0 7.0 0.00 0.00 0.00 29 1003.6
20260509184633 73 290 2.0 6.0 0.00 0.00 0.00 31 1003.5
20260509181033 73 253 2.0 5.0 0.00 0.00 0.00 33 1003.6
20260509180133 73 257 2.0 7.0 0.00 0.00 0.00 33 1003.7
20260509175233 73 201 2.0 8.0 0.00 0.00 0.00 31 1003.8
20260509174333 73 293 3.0 8.0 0.00 0.00 0.00 35 1003.7
20260509173433 73 296 3.0 13.0 0.00 0.00 0.00 33 1003.8
20260509172533 72 247 2.0 8.0 0.00 0.00 0.00 35 1003.7
20260509171633 71 156 2.0 6.0 0.00 0.00 0.00 45 1003.7
20260509165833 69 165 1.0 5.0 0.00 0.00 0.00 51 1003.9
20260509164032 68 236 1.0 4.0 0.00 0.00 0.00 56 1004.1
20260509163133 67 165 1.0 5.0 0.00 0.00 0.00 55 1003.8
20260509162233 67 254 1.0 5.0 0.00 0.00 0.00 57 1003.9
20260509161333 67 197 1.0 4.0 0.00 0.00 0.00 60 1003.9
20260509160433 66 159 1.0 4.0 0.00 0.00 0.00 62 1004.0
20260509155533 65 174 1.0 4.0 0.00 0.00 0.00 62 1004.0
20260509154633 65 171 1.0 4.0 0.00 0.00 0.00 64 1004.0
20260509153733 64 219 1.0 4.0 0.00 0.00 0.00 64 1004.0
20260509152833 64 164 1.0 4.0 0.00 0.00 0.00 67 1004.1
20260509151933 63 161 1.0 3.0 0.00 0.00 0.00 67 1004.1
20260509151032 63 205 1.0 7.0 0.00 0.00 0.00 66 1004.2
20260509150133 63 195 1.0 7.0 0.00 0.00 0.00 67 1004.1
20260509145233 62 202 1.0 3.0 0.00 0.00 0.00 68 1004.0
20260509143433 62 224 1.0 5.0 0.00 0.00 0.00 70 1004.2
20260509142532 61 160 1.0 3.0 0.00 0.00 0.00 70 1003.9
20260509141632 60 194 1.0 3.0 0.00 0.00 0.00 70 1003.9
20260509140733 60 202 1.0 4.0 0.00 0.00 0.00 71 1004.1
20260509135832 59 185 2.0 4.0 0.00 0.00 0.00 70 1004.0
20260509134932 58 192 1.0 3.0 0.00 0.00 0.00 68 1003.8
20260509134032 57 217 1.0 3.0 0.00 0.00 0.00 64 1003.8
20260509133138 57 189 1.0 4.0 0.00 0.00 0.00 57 1003.8
20260509131333 56 196 1.0 4.0 0.00 0.00 0.00 41 1004.0
20260509125532 54 198 1.0 2.0 0.00 0.00 0.00 36 1003.8
20260509124633 54 197 1.0 3.0 0.00 0.00 0.00 36 1003.9
20260509123733 53 209 1.0 4.0 0.00 0.00 0.00 35 1003.7
20260509122834 53 179 1.0 2.0 0.00 0.00 0.00 35 1003.7
20260509121032 53 188 1.0 3.0 0.00 0.00 0.00 36 1003.7
20260509120133 52 191 1.0 3.0 0.00 0.00 0.00 37 1003.8
20260509115232 52 226 1.0 2.0 0.00 0.00 0.00 37 1003.7
20260509114332 52 184 1.0 3.0 0.00 0.00 0.00 38 1003.6
20260509113432 52 162 1.0 3.0 0.00 0.00 0.00 38 1003.5
20260509112532 52 133 1.0 2.0 0.00 0.00 0.00 39 1003.3
20260509111632 52 14 1.0 3.0 0.00 0.00 0.00 39 1003.4
20260509110740 52 209 1.0 2.0 0.00 0.00 0.00 40 1003.5
20260509105213 52 200 1.0 1.0 0.00 0.00 0.00 41 1003.3
20260509105012 52 199 1.0 1.0 0.00 0.00 0.00 41 1003.3
20260509104313 52 193 1.0 2.0 0.00 0.00 0.00 42 1003.2
20260509103413 52 232 1.0 1.0 0.00 0.00 0.00 43 1003.2
20260509103213 52 238 1.0 1.0 0.00 0.00 0.00 43 1003.2
20260509102513 52 242 0.0 1.0 0.00 0.00 0.00 44 1003.2
20260509101613 52 264 1.0 1.0 0.00 0.00 0.00 45 1003.1
20260509101412 52 244 1.0 2.0 0.00 0.00 0.00 45 1003.2
20260509100713 52 181 0.0 1.0 0.00 0.00 0.00 45 1003.3
20260509100512 52 181 0.0 1.0 0.00 0.00 0.00 46 1003.3
20260509095813 52 181 0.0 1.0 0.00 0.00 0.00 46 1003.4
20260509095612 52 181 0.0 1.0 0.00 0.00 0.00 47 1003.4
20260509094712 52 181 0.0 1.0 0.00 0.00 0.00 47 1003.5
20260509093813 52 181 0.0 1.0 0.00 0.00 0.00 48 1003.5
20260509093113 52 181 1.0 1.0 0.00 0.00 0.00 49 1003.5
20260509092913 52 181 1.0 1.0 0.00 0.00 0.00 49 1003.5
20260509092213 52 183 1.0 1.0 0.00 0.00 0.00 50 1003.7
20260509092012 52 186 1.0 1.0 0.00 0.00 0.00 50 1003.8
20260509091313 52 209 0.0 1.0 0.00 0.00 0.00 51 1003.8
20260509091112 52 213 0.0 1.0 0.00 0.00 0.00 51 1003.7
20260509090413 52 213 1.0 1.0 0.00 0.00 0.00 52 1003.7
20260509090212 52 213 1.0 1.0 0.00 0.00 0.00 52 1003.8
20260509085513 51 212 0.0 1.0 0.00 0.00 0.00 54 1003.9
20260509085313 51 213 0.0 1.0 0.00 0.00 0.00 54 1003.9
20260509084613 51 213 0.0 1.0 0.00 0.00 0.00 55 1003.9
20260509084412 51 212 0.0 1.0 0.00 0.00 0.00 55 1003.9
20260509083713 51 0 0.0 0.0 0.00 0.00 0.00 56 1003.9
20260509083512 51 220 0.0 1.0 0.00 0.00 0.00 56 1004.0
20260509082813 51 0 0.0 0.0 0.00 0.00 0.00 57 1004.0
20260509082613 51 220 0.0 1.0 0.00 0.00 0.00 57 1004.0
20260509081712 51 220 0.0 1.0 0.00 0.00 0.00 58 1004.0
20260509081013 51 0 0.0 0.0 0.00 0.00 0.00 59 1004.1
20260509080812 51 0 0.0 0.0 0.00 0.00 0.00 59 1004.0
20260509080113 51 220 0.0 1.0 0.00 0.00 0.00 60 1003.9
20260509075912 51 220 0.0 1.0 0.00 0.00 0.00 60 1003.9
20260509075213 51 220 0.0 1.0 0.00 0.00 0.00 61 1004.0
20260509075012 52 220 0.0 1.0 0.00 0.00 0.00 61 1004.0
20260509074313 52 220 0.0 1.0 0.00 0.00 0.00 62 1004.0
20260509074112 52 220 0.0 1.0 0.00 0.00 0.00 62 1004.0
20260509073212 52 220 0.0 1.0 0.00 0.00 0.00 63 1004.2
20260509072513 52 220 0.0 1.0 0.00 0.00 0.00 63 1004.1
20260509071412 52 220 0.0 1.0 0.00 0.00 0.00 64 1004.5
20260509070512 52 221 0.0 1.0 0.00 0.00 0.00 65 1004.5
20260509065612 52 222 0.0 1.0 0.00 0.00 0.00 65 1004.7
20260509064712 53 222 0.0 1.0 0.00 0.00 0.00 66 1004.7
20260509063812 53 224 0.0 1.0 0.00 0.00 0.00 66 1004.7
20260509063113 53 206 0.0 1.0 0.00 0.00 0.00 67 1004.8
20260509062213 53 205 0.0 1.0 0.00 0.00 0.00 67 1005.0
20260509061112 54 205 0.0 1.0 0.00 0.00 0.00 67 1005.0
20260509060413 54 205 1.0 1.0 0.00 0.00 0.00 68 1005.0
20260509060212 54 205 1.0 1.0 0.00 0.00 0.00 68 1005.1
20260509055512 54 198 0.0 1.0 0.00 0.00 0.00 68 1005.2
20260509055312 54 200 0.0 1.0 0.00 0.00 0.00 68 1005.2
20260509054612 54 198 0.0 1.0 0.00 0.00 0.00 68 1005.2
20260509054412 54 197 0.0 1.0 0.00 0.00 0.00 68 1005.2
20260509053712 54 132 0.0 1.0 0.00 0.00 0.00 69 1005.4
20260509053512 55 140 0.0 1.0 0.00 0.00 0.00 69 1005.4
20260509052813 55 136 0.0 2.0 0.00 0.00 0.00 69 1005.4
20260509052612 55 161 1.0 2.0 0.00 0.00 0.00 69 1005.3
20260509051712 55 203 1.0 2.0 0.00 0.00 0.00 70 1005.2
20260509050812 55 200 0.0 2.0 0.00 0.00 0.00 70 1005.3
20260509050112 55 200 1.0 1.0 0.00 0.00 0.00 71 1005.3
20260509045912 55 200 1.0 2.0 0.00 0.00 0.00 71 1005.2
20260509045213 55 206 0.0 1.0 0.00 0.00 0.00 71 1005.3
20260509044313 56 171 1.0 2.0 0.00 0.00 0.00 72 1005.2
20260509044112 56 172 0.0 1.0 0.00 0.00 0.00 72 1005.2
20260509043413 56 138 0.0 1.0 0.00 0.00 0.00 72 1005.3
20260509043212 56 133 1.0 2.0 0.00 0.00 0.00 72 1005.2
20260509042312 56 161 1.0 1.0 0.00 0.00 0.00 72 1005.3
20260509041612 56 130 0.0 1.0 0.00 0.00 0.00 72 1005.3
20260509041412 56 130 0.0 1.0 0.00 0.00 0.00 72 1005.4
20260509040712 56 147 0.0 2.0 0.00 0.00 0.00 72 1005.4
20260509040512 56 145 0.0 2.0 0.00 0.00 0.00 72 1005.4
20260509035812 57 173 1.0 2.0 0.00 0.00 0.00 72 1005.4
20260509035612 57 162 1.0 2.0 0.00 0.00 0.00 72 1005.5
20260509034912 57 143 1.0 1.0 0.00 0.00 0.00 71 1005.5
20260509034712 57 143 1.0 1.0 0.00 0.00 0.00 71 1005.5
20260509034013 57 137 1.0 1.0 0.00 0.00 0.00 71 1005.5
20260509033812 57 136 1.0 2.0 0.00 0.00 0.00 71 1005.5
20260509033112 57 127 1.0 1.0 0.00 0.00 0.00 71 1005.5
20260509032212 58 141 1.0 1.0 0.00 0.00 0.00 70 1005.5
20260509031312 58 145 1.0 2.0 0.00 0.00 0.00 70 1005.5
20260509031112 58 163 1.0 2.0 0.00 0.00 0.00 70 1005.6
20260509030212 58 175 0.0 2.0 0.00 0.00 0.00 70 1005.5
20260509025512 58 174 1.0 2.0 0.00 0.00 0.00 69 1005.5
20260509025312 58 175 0.0 1.0 0.00 0.00 0.00 69 1005.6
20260509024412 59 187 0.0 1.0 0.00 0.00 0.00 68 1005.6
20260509023712 59 202 0.0 1.0 0.00 0.00 0.00 67 1005.5
20260509023511 59 209 0.0 1.0 0.00 0.00 0.00 67 1005.5
20260509022812 59 203 0.0 1.0 0.00 0.00 0.00 64 1005.4
20260509022612 59 207 0.0 1.0 0.00 0.00 0.00 63 1005.5
20260509021912 59 184 0.0 1.0 0.00 0.00 0.00 61 1005.5
20260509021712 59 0 0.0 0.0 0.00 0.00 0.00 61 1005.6
20260509021012 60 0 0.0 0.0 0.00 0.00 0.00 59 1005.5
20260509020812 60 0 0.0 0.0 0.00 0.00 0.00 59 1005.5
20260509020112 60 0 0.0 0.0 0.00 0.00 0.00 58 1005.3
20260509015912 60 0 0.0 0.0 0.00 0.00 0.00 58 1005.3
20260509015212 61 0 0.0 0.0 0.00 0.00 0.00 57 1005.3
20260509015011 61 0 0.0 0.0 0.00 0.00 0.00 57 1005.2
20260509014112 61 0 0.0 0.0 0.00 0.00 0.00 56 1005.2
20260509013412 61 0 0.0 0.0 0.00 0.00 0.00 55 1005.2
20260509013212 62 0 0.0 0.0 0.00 0.00 0.00 55 1005.3
20260509012512 62 0 0.0 0.0 0.00 0.00 0.00 54 1005.3
20260509011612 62 0 0.0 0.0 0.00 0.00 0.00 54 1005.3
20260509011412 62 0 0.0 0.0 0.00 0.00 0.00 53 1005.2
20260509010712 63 184 0.0 1.0 0.00 0.00 0.00 53 1005.1
20260509005812 63 184 0.0 1.0 0.00 0.00 0.00 52 1005.1
20260509005612 63 184 0.0 1.0 0.00 0.00 0.00 51 1005.1
20260509004912 64 184 0.0 1.0 0.00 0.00 0.00 51 1005.2
20260509004012 64 184 0.0 1.0 0.00 0.00 0.00 50 1005.3
20260509003812 64 184 0.0 1.0 0.00 0.00 0.00 49 1005.2
20260509003112 64 184 0.0 1.0 0.00 0.00 0.00 50 1005.2
20260509002911 64 191 0.0 1.0 0.00 0.00 0.00 49 1005.3
20260509002011 64 191 0.0 2.0 0.00 0.00 0.00 49 1005.3
20260509001312 64 0 0.0 0.0 0.00 0.00 0.00 49 1005.3
20260509001112 64 0 0.0 0.0 0.00 0.00 0.00 49 1005.3
20260509000412 64 161 0.0 1.0 0.00 0.00 0.00 49 1005.3
20260509000212 64 161 0.0 1.0 0.00 0.00 0.00 50 1005.3
20260508235512 65 161 0.0 1.0 0.00 0.00 0.00 50 1005.3
20260508235312 65 161 0.0 1.0 0.00 0.00 0.00 49 1005.3
20260508234612 65 161 0.0 1.0 0.00 0.00 0.00 48 1005.4
20260508233712 65 210 1.0 2.0 0.00 0.00 0.00 47 1005.4
20260508233511 65 213 1.0 2.0 0.00 0.00 0.00 47 1005.4
20260508232812 66 197 0.0 1.0 0.00 0.00 0.00 47 1005.4
20260508232612 66 196 1.0 1.0 0.00 0.00 0.00 47 1005.4
20260508231912 66 189 1.0 1.0 0.00 0.00 0.00 45 1005.4
20260508231712 66 197 1.0 2.0 0.00 0.00 0.00 46 1005.5
20260508231012 66 135 1.0 2.0 0.00 0.00 0.00 46 1005.4
20260508230812 66 142 1.0 2.0 0.00 0.00 0.00 47 1005.4
20260508230112 67 125 1.0 2.0 0.00 0.00 0.00 47 1005.4
20260508225911 67 128 1.0 3.0 0.00 0.00 0.00 46 1005.5
20260508225212 67 118 1.0 3.0 0.00 0.00 0.00 46 1005.4
20260508224312 67 139 1.0 2.0 0.00 0.00 0.00 47 1005.5
20260508224111 67 138 1.0 2.0 0.00 0.00 0.00 46 1005.5
20260508223412 67 110 1.0 3.0 0.00 0.00 0.00 48 1005.7
20260508223211 67 115 1.0 2.0 0.00 0.00 0.00 47 1005.7
20260508222512 67 119 1.0 2.0 0.00 0.00 0.00 48 1005.8
20260508222312 67 150 1.0 2.0 0.00 0.00 0.00 48 1005.7
20260508221612 67 156 1.0 2.0 0.00 0.00 0.00 48 1005.6
20260508221411 67 153 1.0 2.0 0.00 0.00 0.00 48 1005.6
20260508220712 67 130 1.0 3.0 0.00 0.00 0.00 48 1005.7
20260508220511 67 133 1.0 3.0 0.00 0.00 0.00 47 1005.7
20260508215812 66 141 1.0 3.0 0.00 0.00 0.00 46 1005.8
20260508214912 67 185 1.0 3.0 0.00 0.00 0.00 45 1005.8
20260508214712 67 196 1.0 4.0 0.00 0.00 0.00 45 1005.9
20260508214012 68 167 1.0 3.0 0.00 0.00 0.00 47 1005.8
20260508213812 68 139 1.0 2.0 0.00 0.00 0.00 46 1005.9
20260508213112 68 133 1.0 3.0 0.00 0.00 0.00 45 1005.9
20260508212911 68 139 1.0 3.0 0.00 0.00 0.00 45 1005.9
20260508212212 68 176 1.0 1.0 0.00 0.00 0.00 44 1006.0
20260508212011 68 186 1.0 2.0 0.00 0.00 0.00 45 1006.0
20260508211312 68 192 1.0 1.0 0.00 0.00 0.00 44 1005.9
20260508210412 68 216 1.0 2.0 0.00 0.00 0.00 43 1006.0
20260508210211 68 195 1.0 3.0 0.00 0.00 0.00 42 1006.0
20260508205512 68 273 1.0 2.0 0.00 0.00 0.00 40 1006.0
20260508205311 68 193 1.0 3.0 0.00 0.00 0.00 42 1006.0
20260508204612 70 183 1.0 2.0 0.00 0.00 0.00 43 1006.0
20260508203712 70 176 1.0 2.0 0.00 0.00 0.00 41 1006.1
20260508203511 70 196 1.0 1.0 0.00 0.00 0.00 41 1006.1
20260508202812 70 231 1.0 1.0 0.00 0.00 0.00 41 1006.3
20260508202612 70 220 1.0 2.0 0.00 0.00 0.00 44 1006.3
20260508201912 69 133 1.0 3.0 0.00 0.00 0.00 43 1006.4
20260508201012 68 8 0.0 1.0 0.00 0.00 0.00 41 1006.5
20260508200811 68 7 1.0 2.0 0.00 0.00 0.00 40 1006.5
20260508200112 68 209 1.0 2.0 0.00 0.00 0.00 40 1006.7
20260508195911 68 203 1.0 4.0 0.00 0.00 0.00 40 1006.8
20260508195212 69 154 1.0 2.0 0.00 0.00 0.00 40 1007.1
20260508195011 69 162 1.0 3.0 0.00 0.00 0.00 43 1007.0